Location: Omaha
(41.2590°N, 95.9380°W)
Time: 09:19:26
(UTC-06:00)

Envisat - Pass Details

Date: 11 October 2017
Orbit: 764 x 766 km, 98.2° (Epoch: 10 December)

Event Time Altitude Azimuth Distance (km) Brightness Sun altitude
Exits shadow 21:10:54 69° 359° (N) 822 3.1 -27.4°
Drops below altitude 10° 21:15:22 10° 348° (NNW) 2,313 5.8 -28.2°
Sets 21:17:41 0° 348° (NNW) 3,244 6.6 -28.6°
